Tracking 28052 objects as of 25-Sep-2023
HD Live streaming from Space Station
objects crossing your sky now

STARLINK-3938

Track STARLINK-3938 now!
10-day predictions
STARLINK-3938 is classified as:


NORAD ID: 52566
Int'l Code: 2022-051AK
Perigee: 545.8 km
Apogee: 548.0 km
Inclination: 53.2 °
Period: 95.4 minutes
Semi major axis: 6917 km
RCS: Unknown
Launch date: May 13, 2022
Source: United States (US)
Launch site: AIR FORCE WESTERN TEST RANGE (AFWTR)
Your satellite tracking list
Your tracking list is empty




NASA's NSSDC Master Catalog

Two Line Element Set (TLE):
1 52566U 22051AK  23267.84665498  .00000004  00000-0  18375-4 0  9996
2 52566  53.2155 200.2053 0001613  80.9281 279.1894 15.08835947 76056
Source of the keplerian elements: AFSPC